Вернуться в каталог

MARECS A

АктивенСвязьMEO
NORAD 13010·PAYLOAD·🇪🇺 EU

Запущен Dec 20, 1981 с Guiana Space Centre

Loading…

Ближайшие Пролёты (ближайшие 24 часа)

TLE

СвежийSource: Space-Track

Эпоха: Sep 14, 2026, 14:03 UTC

1 13010U 81122A   26257.58547308 -.00000250  00000-0  00000-0 0  9999
2 13010  11.5118 328.9361 0120050 268.0504 116.5312  0.95040117112212

Отслеживайте MARECS A в реальном времени с AllMySat

Download on the App Store